Location: Champs
(48.8539°N, 2.6040°E)
Time: 04:34:26
(UTC+00:00)

USA 307 - Pass Details

Date: 26 October 2021
Orbit: 560 x 575 km, 54.0° (Epoch: 25 November)

Event Time Altitude Azimuth Distance (km) Brightness Sun altitude
Exits shadow 04:35:32 32° 216° (SW) 989 3.8 -18.9°
Maximum altitude 04:37:21 63° 146° (SE) 633 3.2 -18.6°
Drops below altitude 10° 04:41:31 10° 66° (ENE) 1,857 6.5 -17.9°
Sets 04:43:47 0° 63° (ENE) 2,754 7.6 -17.6°
